Fulton, NY

4:31 PM EDT on June 16, 2019 (GMT -0400)
Oswego County

Weather History for KFZY - May, 2019

Change the Weather History Date:

Saturday, May 25, 2019

  Actual Average (KSYR) Record (KSYR)
Temperature  
Mean Temperature 62 °F -  
Max Temperature 75 °F 71 °F 88 °F (2007)
Min Temperature 48 °F 49 °F 33 °F (1992)
Degree Days  
Heating Degree Days 4    
Growing Degree Days 12 (Base 50)    
Moisture  
Dew Point 54 °F    
Average Humidity 75    
Maximum Humidity 90    
Minimum Humidity 55    
Precipitation  
Precipitation 0.43 in - - ()
Sea Level Pressure  
Sea Level Pressure 30.00 in    
Wind  
Wind Speed 5 mph (SSE)    
Max Wind Speed 13 mph    
Max Gust Speed 40 mph    
Visibility 10 miles    
Events Rain , Thunderstorm    
Averages and records for this station are not official NWS values.
T = Trace of Precipitation, MM = Missing Value Source: NWS Daily Summary

Daily Weather History Graph

Daily Weather History Graph

Search for Another Location

Airport or City:

Astronomy

May. 25, 2019 Rise Set
Actual Time 5:32 AM EDT 8:32 PM EDT
Civil Twilight 4:58 AM EDT 9:07 PM EDT
Nautical Twilight 4:15 AM EDT 9:50 PM EDT
Astronomical Twilight 3:23 AM EDT 10:42 PM EDT
Moon 1:30 AM EDT (5/25) 11:31 AM EDT (5/25)
Length of Visible Light 16h 08m
Length of Day
15h 00m
Waning Gibbous, 60% of the Moon is Illuminated
May 25
Waning Gibbous
May 26
Last Quarter
Jun 3
New
Jun 10
First Quarter
Jun 17
Full

Hourly Weather History & Observations

Time (EDT) Temp. Dew Point Humidity Pressure Visibility Wind Dir Wind Speed Gust Speed Precip Events Conditions
12:54 AM 48.0 °F 44.1 °F 86% 30.18 in 10.0 mi SE 3.5 mph - N/A   Clear
1:54 AM 50.0 °F 46.0 °F 86% 30.16 in 10.0 mi Variable 3.5 mph - N/A   Clear
2:54 AM 50.0 °F 46.0 °F 86% 30.14 in 10.0 mi East 3.5 mph - N/A   Clear
3:54 AM 48.9 °F 45.0 °F 86% 30.14 in 10.0 mi Calm Calm - N/A   Clear
4:54 AM 48.9 °F 46.0 °F 90% 30.15 in 10.0 mi Calm Calm - N/A   Clear
5:54 AM 50.0 °F 46.0 °F 86% 30.15 in 10.0 mi Variable 3.5 mph - N/A   Clear
6:54 AM 53.1 °F 48.9 °F 86% 30.14 in 10.0 mi SE 4.6 mph - N/A   Clear
7:54 AM 55.0 °F 48.9 °F 80% 30.12 in 10.0 mi Variable 5.8 mph - N/A   Clear
8:54 AM 60.1 °F 50.0 °F 69% 30.11 in 10.0 mi Variable 4.6 mph - N/A   Clear
9:54 AM 62.1 °F 48.9 °F 62% 30.10 in 10.0 mi SSE 4.6 mph - N/A   Clear
10:54 AM 66.0 °F 50.0 °F 56% 30.08 in 10.0 mi Variable 5.8 mph - N/A   Mostly Cloudy
11:54 AM 66.9 °F 51.1 °F 57% 30.09 in 10.0 mi South 8.1 mph - 0.00 in Rain Light Rain
12:54 PM 64.0 °F 55.0 °F 73% 30.04 in 10.0 mi South 11.5 mph - 0.04 in   Overcast
1:54 PM 66.0 °F 55.0 °F 68% 30.00 in 10.0 mi Variable 6.9 mph - N/A   Overcast
2:54 PM 64.0 °F 57.9 °F 80% 29.97 in 10.0 mi SE 5.8 mph - 0.17 in   Overcast
3:54 PM 70.0 °F 57.0 °F 63% 29.91 in 10.0 mi SE 9.2 mph - N/A   Partly Cloudy
4:54 PM 73.0 °F 57.9 °F 59% 29.88 in 10.0 mi Variable 6.9 mph - N/A   Clear
5:54 PM 75.0 °F 57.9 °F 55% 29.86 in 10.0 mi SE 8.1 mph - N/A   Clear
6:54 PM 73.9 °F 57.9 °F 57% 29.85 in 10.0 mi SSE 5.8 mph - N/A   Partly Cloudy
7:54 PM 73.0 °F 57.9 °F 59% 29.82 in 10.0 mi South 10.4 mph 19.6 mph 0.00 in   Mostly Cloudy
8:27 PM 72.0 °F 59.0 °F 64% 29.82 in 10.0 mi South 8.1 mph - N/A Thunderstorm Scattered Clouds
8:42 PM 68.0 °F 62.1 °F 81% 29.89 in 10.0 mi West 12.7 mph 40.3 mph 0.16 in Rain , Thunderstorm Heavy Thunderstorms and Rain
8:54 PM 66.9 °F 62.1 °F 84% 29.87 in 10.0 mi WNW 5.8 mph 21.9 mph 0.19 in Rain Light Rain
9:54 PM 66.0 °F 62.1 °F 87% 29.89 in 10.0 mi South 5.8 mph - 0.00 in Rain Light Rain
10:54 PM 64.9 °F 61.0 °F 87% 29.88 in 10.0 mi South 8.1 mph - 0.01 in Rain Light Rain
11:22 PM 64.9 °F 62.1 °F 90% 29.88 in 10.0 mi South 10.4 mph - 0.02 in Rain Light Rain
11:54 PM 66.0 °F 61.0 °F 84% 29.87 in 10.0 mi SSW 6.9 mph - 0.02 in   Overcast